Location: Jackson Park
(37.2862°N, 79.9123°W)
Time: 01:40:10
(UTC+00:00)

Tiros 1 despin weight - Pass Details

Date: 15 May 2026
Orbit: 554 x 591 km, 48.2° (Epoch: 6 June)

Event Time Altitude Azimuth Distance (km) Brightness Sun altitude
Rises 08:43:19 0° 200° (SSW) 2,759 - -15.6°
Reaches altitude 10° 08:45:59 10° 184° (S) 1,858 - -15.2°
Exits shadow 08:46:32 13° 179° (S) 1,696 ? -15.1°
Maximum altitude 08:49:14 22° 134° (SE) 1,265 ? -14.7°
Drops below altitude 10° 08:52:30 10° 83° (E) 1,849 ? -14.2°
Sets 08:55:07 0° 68° (ENE) 2,742 ? -13.8°
